COSMOS 1933

Last updated on Tue Jul 01 2025 00:02:14 GMT+0000 (Coordinated Universal Time)

1 18958U 88020A 25181.36231938 .00003269 00000+0 17137-3 0 9992 2 18958 82.5145 140.0169 0004573 23.0765 337.0672 15.15441161 11987
UTC large
Height (km)
Speed (km/s)
/
Latitude / Longitude
Inclination (degrees)
Orbital Period (minutes)
Azimuth
Elevation
Range (km)
Doppler Factor

Next 0 passes for location: London (51.5072 / 0.1276)

Sorry there are no passes over London.